Content
SEND FEEDBACK

Daily
Averages
Monthly
Summary
United States of America

DUNSMUIR, CALIFORNIA


Home > North America > United States > California
Elevation: 3289 feet     Latitude: 41 12N     Longitude: 122 16W

WEATHER
 
SELECT A DAY
Number of Records: 231,614;   Date Range: 1/1/95 - 9/20/14
 
SHARE

PRINT THIS DATA

[ ← Previous Day ]
WEATHER ALMANAC - MARCH 20, 2013
[ Next Day → ]
[ °C ]   °F
Weather ElementAverageHighLow
Temperature43.2 °F48.2 °F (3:45 pm)36 °F (10:56 pm)
Dewpoint38.7 °F44.6 °F (3:45 pm)26.1 °F (11:56 pm)
Humidity84.5 %93 % (10:56 am)62 % (8:56 pm)
Barometer29.98 in30.14 in (11:56 pm)29.90 in (8:12 am)
Wind Speed5.1 mph9.2 mph (9:38 am)
Wind Gust21.9 mph (11:56 pm)
Weather ElementAverage
Visibility9.5 mi
Wind DirectionENE (74.7 °)

Weather ElementTotal
Precipitation0.11 in
Heating Degree Days22.9 (Base 65)
Averaged from 30 records on March 20, 2013
WEATHER CONDITIONS BREAKOUT
WIND DIRECTION BREAKOUT
WEATHER BY HOUR - MARCH 20, 2013
[ °C ]   °F
Local TimeTemperatureDewpointHumidityBarometerVisibilityWind DirectionWind SpeedGust SpeedPrecipitationEventsConditions
1:56 AM43.0 °F39.0 °F86 %29.97 in10.0 miSE (130°)6.9 mph0.01 inOvercast
2:56 AM43.0 °F39.0 °F86 %29.97 in10.0 miSE (140°)4.6 mphOvercast
3:20 AM42.8 °F39.2 °F87 %29.92 in9.0 miVariable5.8 mph17.3 mph0.00 inRainLight Rain
3:56 AM42.1 °F37.9 °F85 %29.97 in10.0 miESE (120°)3.5 mph0.00 inRainLight Rain
4:56 AM41.0 °F37.9 °F89 %29.97 in10.0 miVariable4.6 mph0.03 inOvercast
5:56 AM41.0 °F37.9 °F89 %29.96 in10.0 miVariable4.6 mph0.01 inOvercast
6:04 AM41.0 °F37.4 °F87 %29.91 in10.0 miSE (140°)6.9 mphOvercast
6:56 AM42.1 °F39.0 °F89 %29.97 in10.0 miVariable3.5 mph0.00 inRainLight Rain
7:56 AM42.1 °F39.0 °F89 %29.96 in10.0 miSE (130°)6.9 mph0.00 inOvercast
8:12 AM42.8 °F39.2 °F87 %29.90 in10.0 miSE (130°)6.9 mphOvercast
8:44 AM42.8 °F39.2 °F87 %29.90 in10.0 miVariable5.8 mphOvercast
8:56 AM42.1 °F39.0 °F89 %29.96 in8.0 miSE (130°)5.8 mph0.00 inRainLight Rain
9:38 AM42.8 °F39.2 °F87 %29.92 in9.0 miESE (120°)9.2 mph0.01 inOvercast
9:53 AM42.8 °F39.2 °F87 %29.91 in7.0 miVariable5.8 mph19.6 mph0.01 inRainLight Rain
9:56 AM43.0 °F39.9 °F89 %29.96 in7.0 miESE (120°)6.9 mph19.6 mph0.01 inRainLight Rain
10:56 AM43.0 °F41.0 °F93 %29.97 in10.0 miVariable5.8 mph0.01 inRainLight Rain
11:56 AM45.0 °F42.1 °F90 %29.97 in9.0 miESE (110°)3.5 mph0.00 inOvercast
12:56 PM46.0 °F42.1 °F86 %29.97 in10.0 miESE (120°)5.8 mphOvercast
1:56 PM46.9 °F43.0 °F86 %29.97 in9.0 miVariable4.6 mph0.01 inOvercast
2:56 PM48.0 °F44.1 °F86 %29.96 in10.0 miESE (120°)4.6 mph0.00 inRainLight Rain
3:45 PM48.2 °F44.6 °F87 %29.92 in10.0 miESE (110°)3.5 mph0.00 inRainLight Rain
3:56 PM46.9 °F44.1 °F90 %29.98 in6.0 miEast (90°)5.8 mph0.00 inRainLight Rain
4:56 PM48.0 °F44.1 °F86 %29.97 in10.0 miESE (110°)3.5 mph0.01 inOvercast
5:56 PM48.0 °F43.0 °F83 %29.98 in10.0 miESE (120°)4.6 mph0.00 inOvercast
6:56 PM46.9 °F41.0 °F80 %30.00 in10.0 miCalmScattered Clouds
7:56 PM44.1 °F36.0 °F73 %30.04 in10.0 miCalmPartly Cloudy
8:56 PM41.0 °F28.9 °F62 %30.09 in10.0 miVariable6.9 mphClear
9:56 PM37.0 °F30.0 °F76 %30.13 in10.0 miWNW (300°)5.8 mphClear
10:56 PM36.0 °F28.9 °F76 %30.12 in10.0 miVariable5.8 mphClear
11:56 PM36.0 °F26.1 °F67 %30.14 in10.0 miVariable5.8 mph21.9 mphClear
Hourly data recorded from KMHS, located miles away from Dunsmuir, California







STORIES FROM OUR PARTNERS